Weather History for Wenatchee, WA

Change the Weather History Date:

Tuesday, September 11, 2012

  Actual Average Record
Temperature  
Mean Temperature 57 °F 59 °F  
Max Temperature 68 °F 75 °F 94 °F (1973)
Min Temperature 46 °F 43 °F 44 °F (1983)
Degree Days  
Heating Degree Days 8 7  
Month to date heating degree days 13 59  
Since 1 July heating degree days 15 170  
Cooling Degree Days 0 1  
Month to date cooling degree days 49 13  
Year to date cooling degree days 857 246  
Growing Degree Days 6 (Base 50)    
Moisture  
Dew Point 31 °F    
Average Humidity 38    
Maximum Humidity 54    
Minimum Humidity 22    
Precipitation  
Precipitation 0.00 in 0.02 in 0.37 in (1966)
Month to date precipitation T 0.22  
Year to date precipitation 5.42 10.64  
Snow  
Snow 0.00 in 0.00 in - ()
Month to date snowfall 0.0  
Since 1 July snowfall 0.0  
Since 1 September snowfall 0.0  
Snow Depth -    
Sea Level Pressure  
Sea Level Pressure 30.21 in    
Wind  
Wind Speed 6 mph (WNW)    
Max Wind Speed 18 mph    
Max Gust Speed 21 mph    
Visibility 9 miles    
Events      
T = Trace of Precipitation, MM = Missing Value Source: NWS Daily Summary

Daily Weather History Graph

Daily Weather History Graph

Search for Another Location

Airport:

Trip Planner

Search our weather history database for the weather conditions in past years. The results will help you decide how hot, cold, wet, or windy it might be!

Date:

Astronomy

Sep. 11, 2012 Rise Set
Actual Time 6:33 AM PDT 7:19 PM PDT
Civil Twilight 6:02 AM PDT 7:50 PM PDT
Nautical Twilight 5:25 AM PDT 8:27 PM PDT
Astronomical Twilight 4:46 AM PDT 9:06 PM PDT
Moon 1:40 AM PDT (9/11) 4:46 PM PDT (9/11)
Length of Visible Light 13h 48m
Length of Day
12h 46m
Waning Crescent, 20% of the Moon is Illuminated
Sep 11
Waning Crescent
Sep 15
New
Sep 22
First Quarter
Sep 29
Full
Oct 8
Last Quarter

Hourly Weather History & Observations

Time (PDT) Temp. Dew Point Humidity Pressure Visibility Wind Dir Wind Speed Gust Speed Precip Events Conditions
12:55 AM 53.1 °F 30.9 °F 43% 30.13 in 10.0 mi WNW 9.2 mph - N/A   Clear
1:55 AM 53.1 °F 28.9 °F 40% 30.14 in 10.0 mi West 12.7 mph - N/A   Clear
2:55 AM 51.1 °F 28.9 °F 43% 30.16 in 10.0 mi NW 8.1 mph - N/A   Clear
3:55 AM 51.1 °F 28.9 °F 43% 30.17 in 10.0 mi WNW 12.7 mph - N/A   Clear
4:55 AM 48.0 °F 30.0 °F 50% 30.19 in 10.0 mi NNW 5.8 mph - N/A   Clear
5:55 AM 46.9 °F 30.0 °F 52% 30.21 in 10.0 mi NNW 8.1 mph - N/A   Clear
6:55 AM 48.0 °F 30.0 °F 50% 30.24 in 10.0 mi NW 9.2 mph - N/A   Clear
7:55 AM 48.9 °F 32.0 °F 52% 30.26 in 10.0 mi West 4.6 mph - N/A   Clear
8:55 AM 52.0 °F 33.1 °F 49% 30.27 in 10.0 mi West 5.8 mph - N/A   Partly Cloudy
9:14 AM 51.8 °F 33.8 °F 50% 30.27 in 8.0 mi SW 6.9 mph - N/A   Mostly Cloudy
9:43 AM 53.6 °F 33.8 °F 47% 30.27 in 9.0 mi SW 6.9 mph - N/A   Partly Cloudy
9:55 AM 54.0 °F 34.0 °F 47% 30.27 in 9.0 mi SW 5.8 mph - N/A   Partly Cloudy
10:55 AM 57.9 °F 34.0 °F 41% 30.27 in 4.0 mi SSW 4.6 mph - N/A   Haze
11:55 AM 61.0 °F 32.0 °F 34% 30.25 in 5.0 mi Calm Calm - N/A   Haze
12:55 PM 64.0 °F 27.0 °F 25% 30.23 in 9.0 mi ESE 4.6 mph - N/A   Clear
1:55 PM 66.0 °F 26.1 °F 22% 30.21 in 10.0 mi Variable 3.5 mph - N/A   Clear
2:55 PM 66.9 °F 27.0 °F 22% 30.20 in 10.0 mi East 8.1 mph - N/A   Overcast
3:55 PM 66.9 °F 28.0 °F 23% 30.18 in 9.0 mi East 5.8 mph - N/A   Overcast
4:55 PM 66.9 °F 30.9 °F 26% 30.17 in 10.0 mi East 5.8 mph - N/A   Overcast
5:55 PM 64.9 °F 32.0 °F 29% 30.17 in 10.0 mi ESE 5.8 mph - N/A   Overcast
6:55 PM 62.1 °F 32.0 °F 32% 30.17 in 10.0 mi ESE 6.9 mph - N/A   Overcast
7:55 PM 62.1 °F 30.0 °F 30% 30.17 in 10.0 mi ESE 6.9 mph - N/A   Overcast
8:55 PM 57.0 °F 30.0 °F 36% 30.20 in 10.0 mi East 5.8 mph - N/A   Scattered Clouds
9:55 PM 57.0 °F 30.0 °F 36% 30.22 in 10.0 mi West 3.5 mph - N/A   Clear
10:55 PM 54.0 °F 28.9 °F 38% 30.23 in 10.0 mi NNW 3.5 mph - N/A   Clear
11:30 PM 51.8 °F 30.2 °F 44% 30.23 in 9.0 mi Calm Calm - N/A   Mostly Cloudy
11:55 PM 55.9 °F 33.1 °F 42% 30.24 in 5.0 mi NNW 5.8 mph - N/A   Haze